Moultrie, GA

4:43 PM EDT on June 26, 2017 (GMT -0400)
Moultrie Municipal

Weather History for KMGR - November, 2011

Change the Weather History Date:

Friday, November 4, 2011

  Actual Average (KMUL) Record (KMUL)
Temperature  
Mean Temperature 56 °F -  
Max Temperature 64 °F 73 °F 87 °F (1936)
Min Temperature 48 °F 52 °F 27 °F (1954)
Degree Days  
Heating Degree Days 9    
Growing Degree Days 6 (Base 50)    
Moisture  
Dew Point 42 °F    
Average Humidity 65    
Maximum Humidity 94    
Minimum Humidity 45    
Precipitation  
Precipitation 0.00 in - - ()
Sea Level Pressure  
Sea Level Pressure 29.96 in    
Wind  
Wind Speed 10 mph (NW)    
Max Wind Speed 18 mph    
Max Gust Speed 26 mph    
Visibility 10 miles    
Events      
Averages and records for this station are not official NWS values.
T = Trace of Precipitation, MM = Missing Value Source: NWS Daily Summary

Daily Weather History Graph

Daily Weather History Graph

Search for Another Location

Airport or City:

Trip Planner

Search our weather history database for the weather conditions in past years. The results will help you decide how hot, cold, wet, or windy it might be!

Date:

Astronomy

Nov. 04, 2011 Rise Set
Actual Time 7:52 AM EDT 6:44 PM EDT
Civil Twilight 7:27 AM EDT 7:09 PM EDT
Nautical Twilight 6:58 AM EDT 7:38 PM EDT
Astronomical Twilight 6:30 AM EDT 8:06 PM EDT
Moon 3:16 PM EDT (11/4) 2:25 AM EDT (11/4)
Length of Visible Light 11h 41m
Length of Day
10h 51m
Waxing Gibbous, 69% of the Moon is Illuminated
Nov 4
Waxing Gibbous
Nov 10
Full
Nov 18
Last Quarter
Nov 25
New
Dec 2
First Quarter

Hourly Weather History & Observations

Time (EDT) Temp. Dew Point Humidity Pressure Visibility Wind Dir Wind Speed Gust Speed Precip Events Conditions
12:35 AM 55.4 °F 53.6 °F 94% 29.94 in 10.0 mi NW 11.5 mph 17.3 mph N/A   Overcast
12:55 AM 55.4 °F 53.6 °F 94% 29.94 in 10.0 mi WNW 6.9 mph 17.3 mph N/A   Overcast
1:15 AM 55.4 °F 51.8 °F 88% 29.94 in 10.0 mi WNW 12.7 mph 16.1 mph N/A   Overcast
1:55 AM 51.8 °F 46.4 °F 82% 29.95 in 10.0 mi NW 13.8 mph 20.7 mph N/A   Overcast
2:55 AM 48.2 °F 41.0 °F 76% 29.95 in 10.0 mi WNW 12.7 mph 21.9 mph N/A   Scattered Clouds
3:15 AM 48.2 °F 41.0 °F 76% 29.94 in 10.0 mi WNW 11.5 mph 16.1 mph N/A   Overcast
3:35 AM 48.2 °F 41.0 °F 76% 29.93 in 10.0 mi WNW 9.2 mph 16.1 mph N/A   Overcast
3:55 AM 48.2 °F 41.0 °F 76% 29.93 in 10.0 mi NW 10.4 mph - N/A   Overcast
4:15 AM 48.2 °F 41.0 °F 76% 29.94 in 10.0 mi WNW 10.4 mph - N/A   Overcast
4:35 AM 48.2 °F 39.2 °F 71% 29.93 in 10.0 mi NW 8.1 mph - N/A   Overcast
4:55 AM 48.2 °F 39.2 °F 71% 29.93 in 10.0 mi NW 8.1 mph 17.3 mph N/A   Overcast
5:15 AM 48.2 °F 39.2 °F 71% 29.93 in 10.0 mi NW 10.4 mph - N/A   Overcast
5:35 AM 48.2 °F 39.2 °F 71% 29.93 in 10.0 mi NW 12.7 mph 17.3 mph N/A   Overcast
5:55 AM 48.2 °F 39.2 °F 71% 29.94 in 10.0 mi NW 8.1 mph - N/A   Overcast
6:15 AM 48.2 °F 39.2 °F 71% 29.94 in 10.0 mi NW 8.1 mph - N/A   Overcast
6:35 AM 48.2 °F 39.2 °F 71% 29.95 in 10.0 mi NW 10.4 mph 17.3 mph N/A   Overcast
6:55 AM 48.2 °F 39.2 °F 71% 29.96 in 10.0 mi WNW 8.1 mph - N/A   Overcast
7:15 AM 48.2 °F 39.2 °F 71% 29.95 in 10.0 mi NW 10.4 mph - N/A   Overcast
7:35 AM 48.2 °F 39.2 °F 71% 29.95 in 10.0 mi NW 8.1 mph 16.1 mph N/A   Overcast
7:55 AM 48.2 °F 39.2 °F 71% 29.96 in 10.0 mi NW 8.1 mph 16.1 mph N/A   Overcast
8:15 AM 48.2 °F 39.2 °F 71% 29.96 in 10.0 mi NW 10.4 mph 17.3 mph N/A   Overcast
8:35 AM 48.2 °F 39.2 °F 71% 29.97 in 10.0 mi NNW 9.2 mph 19.6 mph N/A   Overcast
8:55 AM 48.2 °F 39.2 °F 71% 29.98 in 10.0 mi NW 10.4 mph 17.3 mph N/A   Overcast
9:15 AM 48.2 °F 39.2 °F 71% 29.97 in 10.0 mi NW 6.9 mph 17.3 mph N/A   Overcast
9:35 AM 50.0 °F 39.2 °F 66% 29.97 in 10.0 mi NW 11.5 mph 20.7 mph N/A   Mostly Cloudy
9:55 AM 50.0 °F 39.2 °F 66% 29.97 in 10.0 mi WNW 9.2 mph - N/A   Scattered Clouds
10:15 AM 51.8 °F 39.2 °F 62% 29.99 in 10.0 mi NW 18.4 mph - N/A   Clear
10:35 AM 51.8 °F 39.2 °F 62% 30.00 in 10.0 mi NW 12.7 mph 26.5 mph N/A   Mostly Cloudy
10:55 AM 51.8 °F 39.2 °F 62% 30.00 in 10.0 mi NW 15.0 mph 25.3 mph N/A   Mostly Cloudy
11:15 AM 53.6 °F 39.2 °F 58% 30.00 in 10.0 mi NW 13.8 mph 24.2 mph N/A   Scattered Clouds
11:35 AM 53.6 °F 39.2 °F 58% 30.00 in 10.0 mi NW 16.1 mph 25.3 mph N/A   Scattered Clouds
11:55 AM 53.6 °F 41.0 °F 62% 30.00 in 10.0 mi WNW 12.7 mph 18.4 mph N/A   Scattered Clouds
12:15 PM 53.6 °F 41.0 °F 62% 30.00 in 10.0 mi WNW 11.5 mph 21.9 mph N/A   Scattered Clouds
12:35 PM 55.4 °F 41.0 °F 58% 29.99 in 10.0 mi NW 12.7 mph 18.4 mph N/A   Clear
12:55 PM 55.4 °F 41.0 °F 58% 29.98 in 10.0 mi WNW 13.8 mph 20.7 mph N/A   Scattered Clouds
1:15 PM 57.2 °F 41.0 °F 55% 29.97 in 10.0 mi WNW 10.4 mph 16.1 mph N/A   Clear
1:35 PM 59.0 °F 41.0 °F 51% 29.96 in 10.0 mi NNW 10.4 mph 17.3 mph N/A   Clear
1:55 PM 59.0 °F 41.0 °F 51% 29.95 in 10.0 mi NW 9.2 mph - N/A   Clear
2:15 PM 59.0 °F 41.0 °F 51% 29.94 in 10.0 mi West 11.5 mph 17.3 mph N/A   Clear
2:35 PM 60.8 °F 42.8 °F 52% 29.94 in 10.0 mi WNW 8.1 mph - N/A   Clear
2:55 PM 60.8 °F 42.8 °F 52% 29.94 in 10.0 mi WNW 11.5 mph 16.1 mph N/A   Clear
3:15 PM 60.8 °F 42.8 °F 52% 29.93 in 10.0 mi WNW 9.2 mph 17.3 mph N/A   Clear
3:35 PM 60.8 °F 42.8 °F 52% 29.92 in 10.0 mi WNW 6.9 mph - N/A   Clear
3:55 PM 62.6 °F 42.8 °F 48% 29.92 in 10.0 mi NW 8.1 mph - N/A   Clear
4:15 PM 62.6 °F 42.8 °F 48% 29.94 in 10.0 mi North 9.2 mph 17.3 mph N/A   Clear
4:35 PM 62.6 °F 42.8 °F 48% 29.94 in 10.0 mi NNW 9.2 mph - N/A   Clear
4:55 PM 64.4 °F 42.8 °F 45% 29.94 in 10.0 mi NW 9.2 mph - N/A   Clear
5:15 PM 64.4 °F 42.8 °F 45% 29.95 in 10.0 mi NW 9.2 mph - N/A   Clear
5:35 PM 64.4 °F 42.8 °F 45% 29.95 in 10.0 mi North 10.4 mph - N/A   Clear
5:55 PM 64.4 °F 42.8 °F 45% 29.95 in 10.0 mi North 8.1 mph - N/A   Clear
6:55 PM 60.8 °F 44.6 °F 55% 29.97 in 10.0 mi Calm Calm - N/A   Clear
7:15 PM 57.2 °F 46.4 °F 67% 29.97 in 10.0 mi Calm Calm - N/A   Clear
7:35 PM 55.4 °F 46.4 °F 72% 29.99 in 10.0 mi NNW 3.5 mph - N/A   Clear
7:55 PM 55.4 °F 46.4 °F 72% 30.00 in 10.0 mi NNW 3.5 mph - N/A   Clear
8:35 PM 55.4 °F 46.4 °F 72% 30.01 in 10.0 mi Calm Calm - N/A   Clear
8:55 PM 53.6 °F 46.4 °F 77% 30.02 in 10.0 mi Calm Calm - N/A   Clear
9:15 PM 53.6 °F 46.4 °F 77% 30.02 in 10.0 mi Calm Calm - N/A   Clear
9:35 PM 53.6 °F 46.4 °F 77% 30.03 in 10.0 mi Calm Calm - N/A   Clear
9:55 PM 53.6 °F 46.4 °F 77% 30.03 in 10.0 mi NNW 3.5 mph - N/A   Clear
10:15 PM 51.8 °F 46.4 °F 82% 30.04 in 10.0 mi North 4.6 mph - N/A   Clear
10:35 PM 51.8 °F 46.4 °F 82% 30.05 in 10.0 mi North 3.5 mph - N/A   Clear
10:55 PM 53.6 °F 44.6 °F 72% 30.05 in 10.0 mi North 4.6 mph - N/A   Clear
11:15 PM 53.6 °F 44.6 °F 72% 30.06 in 10.0 mi NNW 4.6 mph - N/A   Clear
11:35 PM 51.8 °F 44.6 °F 76% 30.07 in 10.0 mi NNW 4.6 mph - N/A   Clear
11:55 PM 51.8 °F 44.6 °F 76% 30.06 in 10.0 mi North 5.8 mph - N/A   Clear